GW4137 Weather Reports


time (UTC)temp
C
wind
direction
speed
KPH
gust
KPH
rain 1hr
cm
rain 24hr
cm
rain mn
cm
humidity
%
barometer
mb
20260507020053 19 0 0.0 0.0 0.00 0.00 0.00 21 1006.2
20260507014557 20 0 0.0 9.7 0.00 0.00 0.00 21 1006.1
20260507013109 20 0 1.6 8.0 0.00 0.00 0.00 21 1006.2
20260507011603 20 339 9.7 19.3 0.00 0.00 0.00 20 1006.4
20260507010108 20 323 9.7 27.4 0.00 0.00 0.00 20 1006.4
20260507004555 21 324 19.3 29.0 0.00 0.00 0.00 19 1006.6
20260507003056 22 352 22.5 30.6 0.00 0.00 0.00 19 1006.5
20260507001555 22 320 17.7 40.2 0.00 0.00 0.00 19 1006.7
20260507000100 22 325 22.5 38.6 0.00 0.00 0.00 19 1006.7
20260506234554 22 350 17.7 30.6 0.00 0.00 0.00 19 1006.6
20260506233105 22 325 12.9 29.0 0.00 0.00 0.00 19 1006.7
20260506231555 22 293 8.0 16.1 0.00 0.00 0.00 20 1006.8
20260506230050 21 280 0.0 17.7 0.00 0.00 0.00 21 1007.1
20260506224558 21 5 4.8 19.3 0.00 0.00 0.00 20 1007.3
20260506223054 21 14 4.8 14.5 0.00 0.00 0.00 21 1007.5
20260506221557 20 236 0.0 11.3 0.00 0.00 0.00 21 1007.6
20260506220052 20 266 9.7 19.3 0.00 0.00 0.00 20 1008.0
20260506214555 20 293 3.2 14.5 0.00 0.00 0.00 21 1008.4
20260506213054 20 287 11.3 20.9 0.00 0.00 0.00 21 1008.5
20260506211608 18 0 1.6 16.1 0.00 0.00 0.00 22 1008.8
20260506210054 18 11 9.7 32.2 0.00 0.00 0.00 22 1009.1
20260506204556 18 302 8.0 22.5 0.00 0.00 0.00 23 1009.4
20260506203054 18 312 9.7 20.9 0.00 0.00 0.00 22 1009.6
20260506201554 17 254 3.2 22.5 0.00 0.00 0.00 24 1009.8
20260506200055 17 250 14.5 33.8 0.00 0.00 0.00 23 1010.0
20260506194555 17 250 16.1 29.0 0.00 0.00 0.00 23 1010.4
20260506193055 16 0 14.5 25.7 0.00 0.00 0.00 24 1010.5
20260506191554 16 209 4.8 19.3 0.00 0.00 0.00 25 1010.9
20260506190055 15 211 14.5 41.8 0.00 0.00 0.00 24 1011.3
20260506184604 15 294 9.7 29.0 0.00 0.00 0.00 26 1011.5
20260506183056 14 257 14.5 27.4 0.00 0.00 0.00 26 1011.8
20260506181556 13 194 8.0 29.0 0.00 0.00 0.00 26 1012.1
20260506180057 12 179 8.0 22.5 0.00 0.00 0.00 26 1012.3
20260506174552 12 221 12.9 27.4 0.00 0.00 0.00 27 1012.7
20260506173104 12 155 8.0 25.7 0.00 0.00 0.00 29 1012.9
20260506171602 11 205 11.3 24.1 0.00 0.00 0.00 32 1013.2
20260506170103 10 183 12.9 20.9 0.00 0.00 0.00 35 1013.6
20260506164618 10 207 9.7 24.1 0.00 0.00 0.00 31 1013.7
20260506163107 10 213 12.9 22.5 0.00 0.00 0.00 37 1013.8
20260506161557 8 209 11.3 20.9 0.00 0.00 0.00 42 1014.0
20260506160111 8 180 12.9 19.3 0.00 0.00 0.00 44 1014.3
20260506154555 7 183 9.7 19.3 0.00 0.00 0.00 49 1014.6
20260506153101 6 182 9.7 17.7 0.00 0.00 0.00 52 1014.9
20260506151553 5 196 9.7 16.1 0.00 0.00 0.00 53 1015.1
20260506150053 5 205 6.4 12.9 0.00 0.00 0.00 56 1015.2
20260506144552 3 207 4.8 16.1 0.00 0.00 0.00 60 1015.2
20260506143056 3 352 6.4 16.1 0.00 0.00 0.00 60 1015.4
20260506141609 2 19 3.2 11.3 0.00 0.00 0.00 61 1015.6
20260506140055 1 0 1.6 6.4 0.00 0.00 0.00 62 1015.6
20260506134554 0 360 0.0 4.8 0.00 0.00 0.00 62 1015.7
20260506133105 0 0 0.0 0.0 0.00 0.00 0.00 62 1015.8
20260506131555 -2 0 0.0 0.0 0.00 0.00 0.00 64 1015.9
20260506130056 -4 0 0.0 0.0 0.00 0.00 0.00 66 1015.9
20260506124550 -5 0 0.0 1.6 0.00 0.00 0.00 68 1015.9
20260506123053 -6 0 0.0 0.0 0.00 0.00 0.00 70 1016.0
20260506121614 -7 360 1.6 6.4 0.00 0.00 0.00 69 1016.0
20260506120120 -7 360 4.8 6.4 0.00 0.00 0.00 69 1016.2
20260506114557 -7 360 4.8 6.4 0.00 0.00 0.00 69 1016.2
20260506113109 -7 0 0.0 3.2 0.00 0.00 0.00 68 1016.3
20260506111552 -7 0 0.0 6.4 0.00 0.00 0.00 68 1016.5
20260506110058 -7 360 0.0 3.2 0.00 0.00 0.00 69 1016.8
20260506104553 -7 0 0.0 4.8 0.00 0.00 0.00 67 1017.0
20260506103056 -6 360 4.8 8.0 0.00 0.00 0.00 66 1017.0
20260506101555 -7 360 3.2 6.4 0.00 0.00 0.00 67 1017.1
20260506100058 -6 360 4.8 6.4 0.00 0.00 0.00 66 1017.4
20260506094557 -6 360 3.2 6.4 0.00 0.00 0.00 66 1017.4
20260506093056 -6 360 1.6 6.4 0.00 0.00 0.00 66 1017.6
20260506091554 -6 360 3.2 4.8 0.00 0.00 0.00 66 1017.7
20260506090052 -6 360 0.0 3.2 0.00 0.00 0.00 66 1017.8
20260506084550 -5 0 0.0 0.0 0.00 0.00 0.00 65 1017.9
20260506083051 -5 0 0.0 4.8 0.00 0.00 0.00 64 1018.0
20260506081553 -5 0 0.0 0.0 0.00 0.00 0.00 64 1018.2
20260506073100 -4 0 0.0 4.8 0.00 0.00 0.00 61 1018.5
20260506071555 -3 0 0.0 4.8 0.00 0.00 0.00 59 1018.5
20260506070114 -2 16 3.2 6.4 0.00 0.00 0.00 59 1018.6
20260506061602 -2 16 3.2 4.8 0.00 0.00 0.00 56 1018.5
20260506044558 -1 16 4.8 6.4 0.00 0.00 0.00 50 1018.7
20260506043051 0 16 1.6 4.8 0.00 0.00 0.00 49 1018.7
20260506041556 -1 16 0.0 0.0 0.00 0.00 0.00 50 1018.8
20260506040059 0 0 0.0 0.0 0.00 0.00 0.00 48 1018.8
20260506034555 0 0 1.6 6.4 0.00 0.00 0.00 47 1018.9
20260506033052 1 16 1.6 4.8 0.00 0.00 0.00 44 1018.8
20260506031601 2 16 3.2 8.0 0.00 0.00 0.00 41 1018.7
20260506030105 3 16 6.4 12.9 0.00 0.00 0.00 40 1018.6
20260506024546 5 13 11.3 14.5 0.00 0.00 0.00 38 1018.5
20260506023055 6 5 9.7 20.9 0.00 0.00 0.00 37 1018.4
20260506021551 6 5 16.1 24.1 0.00 0.00 0.00 36 1018.4